TimeEDT,TemperatureF,Dew PointF,Humidity,Sea Level PressureIn,VisibilityMPH,Wind Direction,Wind SpeedMPH,Gust SpeedMPH,PrecipitationIn,Events,Conditions,WindDirDegrees,DateUTC
12:06 AM,51.8,41.0,67,30.31,10.0,Calm,Calm,-,N/A,,Clear,0,2013-05-01 04:06:00
12:27 AM,51.8,39.2,62,30.31,10.0,Calm,Calm,-,N/A,,Clear,0,2013-05-01 04:27:00
12:45 AM,51.8,39.2,62,30.32,10.0,Calm,Calm,-,N/A,,Clear,0,2013-05-01 04:45:00
1:06 AM,50.0,41.0,71,30.32,10.0,Calm,Calm,-,N/A,,Clear,0,2013-05-01 05:06:00
1:27 AM,50.0,41.0,71,30.32,10.0,Calm,Calm,-,N/A,,Clear,0,2013-05-01 05:27:00
1:45 AM,48.2,42.8,82,30.32,10.0,Calm,Calm,-,N/A,,Clear,0,2013-05-01 05:45:00
2:06 AM,46.4,39.2,76,30.33,10.0,WNW,3.5,-,N/A,,Clear,300,2013-05-01 06:06:00
2:27 AM,48.2,39.2,71,30.33,10.0,Calm,Calm,-,N/A,,Clear,0,2013-05-01 06:27:00
2:45 AM,50.0,39.2,66,30.33,10.0,Calm,Calm,-,N/A,,Clear,0,2013-05-01 06:45:00
3:06 AM,50.0,37.4,62,30.33,10.0,North,3.5,-,N/A,,Clear,350,2013-05-01 07:06:00
3:27 AM,50.0,39.2,66,30.33,10.0,Calm,Calm,-,N/A,,Clear,0,2013-05-01 07:27:00
3:45 AM,50.0,39.2,66,30.33,10.0,Calm,Calm,-,N/A,,Clear,0,2013-05-01 07:45:00
4:06 AM,48.2,39.2,71,30.33,10.0,Calm,Calm,-,N/A,,Clear,0,2013-05-01 08:06:00
4:27 AM,48.2,39.2,71,30.33,10.0,Calm,Calm,-,N/A,,Clear,0,2013-05-01 08:27:00
4:45 AM,46.4,41.0,81,30.34,10.0,Calm,Calm,-,N/A,,Clear,0,2013-05-01 08:45:00
5:06 AM,46.4,41.0,81,30.34,10.0,Calm,Calm,-,N/A,,Clear,0,2013-05-01 09:06:00
5:27 AM,44.6,39.2,81,30.34,10.0,Calm,Calm,-,N/A,,Clear,0,2013-05-01 09:27:00
5:36 AM,46.4,39.2,76,30.35,10.0,Calm,Calm,-,N/A,,Clear,0,2013-05-01 09:36:00
5:50 AM,46.4,39.2,76,30.35,10.0,Calm,Calm,-,N/A,,Partly Cloudy,0,2013-05-01 09:50:00
7:45 AM,51.8,39.2,62,30.38,10.0,Calm,Calm,-,N/A,,Clear,0,2013-05-01 11:45:00
9:50 AM,59.0,39.2,48,30.41,10.0,ENE,5.8,-,N/A,,Clear,60,2013-05-01 13:50:00
11:45 AM,64.4,39.2,40,30.42,10.0,ENE,8.1,-,N/A,,Clear,70,2013-05-01 15:45:00
12:45 PM,66.2,39.2,37,30.41,10.0,ENE,9.2,-,N/A,,Clear,70,2013-05-01 16:45:00
1:50 PM,66.2,39.2,37,30.41,10.0,East,9.2,-,N/A,,Clear,90,2013-05-01 17:50:00
3:54 PM,69.8,37.4,31,30.39,10.0,East,8.1,-,N/A,,Clear,80,2013-05-01 19:54:00
5:45 PM,69.8,37.4,31,30.39,10.0,East,8.1,-,N/A,,Clear,80,2013-05-01 21:45:00
6:45 PM,66.2,48.2,52,30.41,10.0,ESE,13.8,18.4,N/A,,Clear,110,2013-05-01 22:45:00
7:50 PM,60.8,48.2,63,30.42,10.0,East,8.1,-,N/A,,Clear,100,2013-05-01 23:50:00
8:55 PM,59.0,46.4,63,30.44,10.0,East,8.1,-,N/A,,Clear,80,2013-05-02 00:55:00
9:45 PM,57.2,46.4,67,30.46,10.0,ENE,5.8,-,N/A,,Clear,70,2013-05-02 01:45:00
10:09 PM,55.4,44.6,67,30.46,10.0,NE,4.6,-,N/A,,Clear,50,2013-05-02 02:09:00
10:27 PM,55.4,46.4,72,30.46,10.0,ENE,3.5,-,N/A,,Clear,60,2013-05-02 02:27:00
10:48 PM,55.4,44.6,67,30.45,10.0,ENE,6.9,-,N/A,,Clear,60,2013-05-02 02:48:00
11:09 PM,55.4,44.6,67,30.45,10.0,ENE,4.6,-,N/A,,Clear,70,2013-05-02 03:09:00
11:27 PM,53.6,44.6,72,30.45,10.0,East,6.9,-,N/A,,Clear,80,2013-05-02 03:27:00
11:48 PM,53.6,46.4,77,30.43,10.0,ENE,4.6,-,N/A,,Clear,60,2013-05-02 03:48:00